Back to catalog

KINEIS-1C

AliveCommunicationsSSO
NORAD 60081·PAYLOAD·🇫🇷 France

Launched Jun 20, 2024 from Rocket Lab Launch Complex 1

Loading…

Next Passes (next 24 hours)

TLE

FreshSource: Space-Track

Epoch: Sep 14, 2026, 13:23 UTC

1 60081U 24114C   26257.55791637  .00000501  00000-0  71907-4 0  9996
2 60081  97.9827 281.1831 0000582 119.2085 240.9185 14.80743228120601

Track KINEIS-1C in real time with AllMySat

Download on the App Store